User: anonymous
Location: Unspecified
(0.0000°N, 0.0000°E)
Time: 04:04:55
(UTC+00:00)
Language:

PLEIADES 1B - Orbit

View from above orbital plane
View from above orbital plane
View from above satellite
View from above satellite

Ground track
Ground track

The orbit data is extracted from the following two-line orbital elements,

1 39019U 12068A   14263.89249429  .00000414  00000-0  98857-4 0   881
2 39019 098.1922 337.5218 0001526 083.4881 276.6471 14.58550430 95901
Epoch (UTC): 20 September 2014 21:25:11
Eccentricity: 0.0001526
inclination: 98.1922°
perigee height: 697 km
apogee height: 699 km
right ascension of ascending node: 337.5218°
argument of perigee: 83.4881°
revolutions per day: 14.58550430
mean anomaly at epoch: 276.6471°
orbit number at epoch: 9590

The dashed part of the orbit path shows where the satellite is in the earth's shadow,  

DLR